Regional Weather Roundup
Issued by NWS

Home | Current Version | Previous Version | Graphics & Text | Print | Product List | Glossary On
Versions: 1 2 3 4 5 6 7 8 9 10 11 12 13 14 15 16 17 18 19 20 21 22 23 24 25 26 27 28 29 30 31 32 33 34 35 36 37 38 39 40 41 42 43 44 45 46 47 48 49 50
023
ASUS44 KLIX 220801
RWRLA
LOUISIANA WEATHER ROUNDUP
NATIONAL WEATHER SERVICE NEW ORLEANS LA
300 AM CDT TUE JUL 22 2014

NOTE: "FAIR" INDICATES FEW OR NO CLOUDS BELOW 12,000 FEET WITH NO
      SIGNIFICANT WEATHER AND/OR OBSTRUCTIONS TO VISIBILITY.
      SKY/WX - SKY CONDITION AND SIGNIFICANT WEATHER.
      TMP - AIR TEMPERATURE.    DP   - DEWPOINT TEMPERATURE.
      RH  - RELATIVE HUMIDITY.  PRES - PRESSURE.
      HX  - HEAT INDEX.         WCI  - WIND CHILL INDEX.

*  THESE STATIONS ARE NOT NWS OR FAA STATIONS AND ARE NOT UNDER
   NWS QUALITY CONTROL.

LAZ040-048-061>063-065-066-069-220900-
SOUTHEAST LOUISIANA

CITY           SKY/WX    TMP DP  RH WIND       PRES   REMARKS
N.O. AUDUBON     N/A     79  76  90 MISG        N/A
N.O. INTL ARPT PTCLDY    78  74  87 W5        29.99F
N.O. LAKEFRONT CLOUDY    81  77  88 SW6       29.99F
N.O. DOWNTOWN* FAIR      82  73  74 CALM      30.00S
SLIDELL        CLEAR     74  71  91 CALM      29.98F
BATON ROUGE    CLEAR     72  70  93 CALM      30.01S
BOOTHVILLE     CLEAR     79  76  90 CALM      29.99S
BELLE CHASSE   MOCLDY    77  73  87 W3        29.98F
BOGALUSA*      FAIR      73  69  88 CALM      30.01S
GALLIANO*      NOT AVBL
NEW ROADS*     FAIR      72  71  97 CALM      30.01F
GONZALES*      FAIR      74  74  99 CALM      29.99F FOG
HAMMOND*       NOT AVBL
HOUMA*         FOG       76  73  91 CALM      29.99S VSB 1/2
PORT FOURCHON* MOSUNNY   82  77  83 S5        30.01F

$$

LAZ041-044-053-054-220900-
SOUTHWEST LOUISIANA

CITY           SKY/WX    TMP DP  RH WIND       PRES   REMARKS
LAKE CHARLES   CLEAR     78  75  90 CALM      29.99F
LAFAYETTE      PTCLDY    77  74  90 CALM      30.00F
PATTERSON      NOT AVBL
SALT POINT       N/A     82  77  84 CALM      29.98F
NEW IBERIA     CLEAR     76  73  91 CALM      30.01S
CHENAULT AIRPK CLEAR     78  73  86 NE3       30.00F

$$

LAZ027-028-220900-
CENTRAL LOUISIANA

CITY           SKY/WX    TMP DP  RH WIND       PRES   REMARKS
FORT POLK      MOCLDY    76  70  82 NE3       30.03S
ALEXANDRIA INT CLEAR     71  70  96 CALM      30.01F FOG
ALEXANDRIA     CLEAR     69  67  93 CALM      30.03S FOG

$$

LAZ001-002-220900-
NORTHWEST LOUISIANA

CITY           SKY/WX    TMP DP  RH WIND       PRES   REMARKS
SHREVEPORT     CLEAR     70  68  93 CALM      30.04S
BARKSDALE AFB  CLEAR     70  69  98 CALM      30.05S
DTN SHREVEPORT PTCLDY    70  68  93 CALM      30.05S

$$

LAZ014-016-220900-
NORTHEAST LOUISIANA

CITY           SKY/WX    TMP DP  RH WIND       PRES   REMARKS
MONROE         CLEAR     70  69  97 CALM      30.05S
TALLULAH       CLEAR     70  68  93 NW3       30.03S

$$




USA.gov is the U.S. government's official web portal to all federal, state and local government web resources and services.